Weather History for Newport, AR

Change the Weather History Date:

Sunday, December 9, 2012

  Actual Average (KJBR) Record (KJBR)
Temperature  
Mean Temperature 60 °F 41 °F  
Max Temperature 69 °F 49 °F 74 °F (1952)
Min Temperature 48 °F 32 °F -1 °F (1917)
Degree Days  
Heating Degree Days 6 24  
Month to date heating degree days 209  
Since 1 July heating degree days 859  
Cooling Degree Days 0 0  
Month to date cooling degree days 0  
Year to date cooling degree days 1827  
Growing Degree Days 10 (Base 50)    
Moisture  
Dew Point 58 °F    
Average Humidity 93    
Maximum Humidity 100    
Minimum Humidity 77    
Precipitation  
Precipitation 0.13 in 0.17 in 2.05 in (1971)
Month to date precipitation 1.63  
Year to date precipitation 44.96  
Snow  
Snow 0.00 in - T in (1955)
Month to date snowfall  
Since 1 July snowfall  
Snow Depth -    
Sea Level Pressure  
Sea Level Pressure 29.82 in    
Wind  
Wind Speed 12 mph (SW)    
Max Wind Speed 24 mph    
Max Gust Speed 51 mph    
Visibility 8 miles    
Events Fog , Rain , Thunderstorm    
T = Trace of Precipitation, MM = Missing Value Source: NWS Daily Summary

Daily Weather History Graph

Daily Weather History Graph

Search for Another Location

Airport:

Trip Planner

Search our weather history database for the weather conditions in past years. The results will help you decide how hot, cold, wet, or windy it might be!

Date:

Astronomy

Dec. 09, 2012 Rise Set
Actual Time 7:03 AM CST 4:51 PM CST
Civil Twilight 6:34 AM CST 5:19 PM CST
Nautical Twilight 6:02 AM CST 5:51 PM CST
Astronomical Twilight 5:31 AM CST 6:22 PM CST
Moon 2:42 AM CST (12/9) 1:53 PM CST (12/9)
Length of Visible Light 10h 45m
Length of Day
9h 48m
Waning Crescent, 18% of the Moon is Illuminated
Dec 9
Waning Crescent
Dec 13
New
Dec 19
First Quarter
Dec 28
Full
Jan 4
Last Quarter

Hourly Weather History & Observations

Time (CST) Temp. Dew Point Humidity Pressure Visibility Wind Dir Wind Speed Gust Speed Precip Events Conditions
12:06 AM 57.2 °F 57.2 °F 100% 29.86 in 0.5 mi SE 10.4 mph - N/A Fog Fog
12:22 AM 57.2 °F 57.2 °F 100% 29.87 in 1.0 mi North 10.4 mph - N/A   Overcast
12:24 AM 55.4 °F 55.4 °F 100% 29.86 in 1.5 mi North 10.4 mph - N/A   Overcast
12:27 AM 57.2 °F 57.2 °F 100% 29.86 in 5.0 mi Variable 6.9 mph - N/A   Overcast
1:16 AM 57.2 °F 57.2 °F 100% 29.86 in 2.0 mi East 4.6 mph - N/A   Overcast
1:35 AM 57.2 °F 57.2 °F 100% 29.85 in 2.0 mi East 3.5 mph - N/A Thunderstorm Overcast
1:56 AM 57.9 °F 57.9 °F 100% 29.84 in 2.0 mi East 5.8 mph - 0.00 in Rain , Thunderstorm Light Thunderstorms and Rain
2:05 AM 57.2 °F 57.2 °F 100% 29.84 in 2.0 mi ESE 8.1 mph - 0.00 in   Overcast
2:23 AM 60.8 °F 60.8 °F 100% 29.84 in 3.0 mi South 12.7 mph - 0.00 in   Overcast
2:42 AM 60.8 °F 60.8 °F 100% 29.83 in 6.0 mi SSW 8.1 mph - 0.00 in   Overcast
2:56 AM 61.0 °F 61.0 °F 100% 29.83 in 9.0 mi SSW 9.2 mph - 0.00 in Rain , Thunderstorm Light Thunderstorms and Rain
3:29 AM 60.8 °F 59.0 °F 94% 29.83 in 10.0 mi SW 11.5 mph - 0.00 in   Overcast
3:42 AM 60.8 °F 60.8 °F 100% 29.84 in 10.0 mi SSW 8.1 mph - 0.00 in   Overcast
3:56 AM 61.9 °F 61.0 °F 97% 29.83 in 10.0 mi SSW 8.1 mph - 0.00 in   Overcast
4:34 AM 60.8 °F 60.8 °F 100% 29.83 in 10.0 mi SSW 10.4 mph - N/A   Overcast
4:56 AM 61.0 °F 59.9 °F 96% 29.82 in 10.0 mi WSW 5.8 mph - N/A   Overcast
5:56 AM 59.9 °F 59.0 °F 97% 29.82 in 10.0 mi South 11.5 mph - 0.00 in Rain Light Rain
6:56 AM 59.0 °F 59.0 °F 100% 29.84 in 10.0 mi South 9.2 mph - 0.00 in   Overcast
7:56 AM 59.0 °F 59.0 °F 100% 29.84 in 10.0 mi South 10.4 mph 23.0 mph N/A   Mostly Cloudy
8:56 AM 59.9 °F 59.9 °F 100% 29.84 in 10.0 mi South 8.1 mph 35.7 mph 0.00 in Rain Light Rain
9:56 AM 61.9 °F 59.9 °F 93% 29.84 in 10.0 mi South 8.1 mph - 0.00 in Rain Light Rain
10:41 AM 66.2 °F 64.4 °F 94% 29.84 in 10.0 mi North - - 0.00 in   Overcast
10:56 AM 65.8 °F 63.9 °F 93% 29.83 in 10.0 mi South 9.2 mph - 0.00 in   Overcast
11:10 AM 66.2 °F 64.4 °F 94% 29.82 in 10.0 mi North - - N/A   Overcast
11:31 AM 66.2 °F 64.4 °F 94% 29.81 in 10.0 mi SSE 12.7 mph - N/A   Overcast
11:56 AM 65.8 °F 64.9 °F 97% 29.80 in 10.0 mi South 18.4 mph 23.0 mph N/A   Overcast
12:49 PM 68.0 °F 64.4 °F 88% 29.78 in 10.0 mi SSW 19.6 mph 50.6 mph N/A   Overcast
12:56 PM 68.9 °F 64.9 °F 87% 29.78 in 10.0 mi SSW 17.3 mph 25.3 mph N/A   Overcast
1:39 PM 69.8 °F 64.4 °F 83% 29.75 in 10.0 mi South 24.2 mph 31.1 mph N/A   Partly Cloudy
1:56 PM 68.9 °F 63.9 °F 84% 29.75 in 10.0 mi South 23.0 mph - N/A   Clear
2:56 PM 68.0 °F 63.9 °F 87% 29.73 in 10.0 mi SSW 20.7 mph 33.4 mph N/A   Mostly Cloudy
3:56 PM 68.0 °F 63.0 °F 84% 29.74 in 10.0 mi South 20.7 mph - N/A   Mostly Cloudy
4:38 PM 66.2 °F 62.6 °F 88% 29.74 in 10.0 mi SE 18.4 mph 32.2 mph N/A Thunderstorm Mostly Cloudy
4:56 PM 66.9 °F 63.0 °F 87% 29.75 in 10.0 mi SSW 18.4 mph - N/A Thunderstorm Overcast
5:18 PM 64.4 °F 57.2 °F 77% 29.77 in 10.0 mi WNW 5.8 mph - N/A Thunderstorm Overcast
5:42 PM 62.6 °F 57.2 °F 82% 29.77 in 10.0 mi NW 11.5 mph - 0.00 in Rain , Thunderstorm Light Thunderstorms and Rain
5:56 PM 61.0 °F 59.9 °F 96% 29.77 in 7.0 mi NW 12.7 mph - 0.00 in Rain , Thunderstorm Rain
6:04 PM 60.8 °F 60.8 °F 100% 29.77 in 5.0 mi NW 16.1 mph 21.9 mph 0.04 in Rain , Thunderstorm Heavy Thunderstorms and Rain
6:56 PM 59.0 °F 56.8 °F 93% 29.80 in 10.0 mi NW 19.6 mph 24.2 mph 0.13 in Thunderstorm Overcast
7:01 PM 59.0 °F 57.2 °F 94% 29.80 in 10.0 mi NW 17.3 mph 24.2 mph N/A   Mostly Cloudy
7:17 PM 57.2 °F 55.4 °F 94% 29.82 in 10.0 mi NW 16.1 mph - 0.00 in   Overcast
7:56 PM 55.9 °F 54.9 °F 96% 29.83 in 9.0 mi NW 18.4 mph 23.0 mph 0.00 in   Overcast
8:56 PM 54.0 °F 50.9 °F 89% 29.85 in 10.0 mi NNW 15.0 mph - N/A   Overcast
9:38 PM 53.6 °F 46.4 °F 77% 29.85 in 10.0 mi NNW 16.1 mph 20.7 mph N/A   Overcast
9:56 PM 52.0 °F 48.9 °F 89% 29.85 in 10.0 mi NNW 18.4 mph 23.0 mph N/A   Overcast
10:28 PM 51.8 °F 46.4 °F 82% 29.87 in 10.0 mi NNW 16.1 mph - N/A   Overcast
10:46 PM 51.8 °F 46.4 °F 82% 29.88 in 10.0 mi NW 19.6 mph - N/A   Overcast
10:56 PM 50.9 °F 45.9 °F 83% 29.87 in 10.0 mi NNW 18.4 mph - N/A   Overcast
11:56 PM 48.9 °F 43.0 °F 80% 29.88 in 10.0 mi NNW 19.6 mph - N/A   Overcast